| time (UTC) | temp C | wind direction | speed KPH | gust KPH | rain 1hr cm | rain 24hr cm | rain mn cm | humidity % | barometer mb |
| 20260905183506 | 18 | 0 | 0.0 | 0.0 | 0.00 | 0.08 | 0.08 | 62 | 1019.8 |
| 20260905183006 | 18 | 0 | 0.0 | 0.0 | 0.00 | 0.08 | 0.08 | 63 | 1019.9 |
| 20260905182506 | 18 | 295 | 0.0 | 1.6 | 0.00 | 0.08 | 0.08 | 62 | 1019.6 |
| 20260905182006 | 18 | 295 | 0.0 | 1.6 | 0.00 | 0.08 | 0.08 | 62 | 1019.5 |
| 20260905181506 | 18 | 0 | 0.0 | 0.0 | 0.00 | 0.08 | 0.08 | 61 | 1019.6 |
| 20260905181006 | 18 | 291 | 0.0 | 3.2 | 0.00 | 0.08 | 0.08 | 60 | 1019.3 |
| 20260905180506 | 19 | 293 | 0.0 | 3.2 | 0.00 | 0.08 | 0.08 | 59 | 1019.6 |
| 20260905180006 | 19 | 324 | 0.0 | 3.2 | 0.00 | 0.08 | 0.08 | 60 | 1019.2 |
| 20260905175506 | 19 | 320 | 0.0 | 3.2 | 0.00 | 0.08 | 0.08 | 59 | 1019.0 |
| 20260905175006 | 18 | 296 | 0.0 | 3.2 | 0.00 | 0.08 | 0.08 | 60 | 1019.1 |
| 20260905174506 | 18 | 7 | 0.0 | 1.6 | 0.00 | 0.08 | 0.08 | 60 | 1019.1 |
| 20260905174006 | 19 | 30 | 0.0 | 1.6 | 0.00 | 0.08 | 0.08 | 59 | 1019.0 |
| 20260905173506 | 19 | 25 | 0.0 | 1.6 | 0.00 | 0.08 | 0.08 | 58 | 1018.9 |
| 20260905173006 | 20 | 27 | 0.0 | 1.6 | 0.00 | 0.08 | 0.08 | 58 | 1018.9 |
| 20260905172506 | 20 | 11 | 0.0 | 1.6 | 0.00 | 0.08 | 0.08 | 56 | 1018.5 |
| 20260905172027 | 20 | 343 | 0.0 | 3.2 | 0.00 | 0.08 | 0.08 | 56 | 1018.8 |
| 20260905171527 | 20 | 321 | 0.0 | 3.2 | 0.00 | 0.08 | 0.08 | 55 | 1018.6 |
| 20260905171027 | 20 | 345 | 0.0 | 3.2 | 0.00 | 0.08 | 0.08 | 56 | 1018.5 |
| 20260905170506 | 20 | 14 | 0.0 | 4.8 | 0.00 | 0.08 | 0.08 | 55 | 1018.6 |
| 20260905170006 | 20 | 353 | 0.0 | 6.4 | 0.00 | 0.08 | 0.08 | 54 | 1018.4 |
| 20260905165506 | 20 | 311 | 1.6 | 6.4 | 0.00 | 0.08 | 0.08 | 54 | 1018.4 |
| 20260905165027 | 21 | 299 | 1.6 | 6.4 | 0.00 | 0.08 | 0.08 | 53 | 1018.3 |
| 20260905164506 | 21 | 354 | 1.6 | 6.4 | 0.00 | 0.08 | 0.08 | 53 | 1018.2 |
| 20260905164006 | 21 | 10 | 1.6 | 4.8 | 0.00 | 0.08 | 0.08 | 53 | 1018.2 |
| 20260905163506 | 21 | 310 | 1.6 | 11.3 | 0.00 | 0.08 | 0.08 | 51 | 1018.1 |
| 20260905163006 | 21 | 299 | 1.6 | 11.3 | 0.00 | 0.08 | 0.08 | 51 | 1018.2 |
| 20260905162505 | 21 | 331 | 1.6 | 6.4 | 0.00 | 0.08 | 0.08 | 50 | 1018.3 |
| 20260905162005 | 21 | 329 | 1.6 | 4.8 | 0.00 | 0.08 | 0.08 | 51 | 1018.4 |
| 20260905161527 | 21 | 306 | 1.6 | 6.4 | 0.00 | 0.08 | 0.08 | 50 | 1018.3 |
| 20260905161005 | 21 | 301 | 1.6 | 12.9 | 0.00 | 0.08 | 0.08 | 49 | 1018.1 |
| 20260905160505 | 21 | 309 | 1.6 | 12.9 | 0.00 | 0.08 | 0.08 | 49 | 1018.1 |
| 20260905160006 | 21 | 2 | 1.6 | 4.8 | 0.00 | 0.08 | 0.08 | 50 | 1018.0 |
| 20260905155506 | 21 | 351 | 1.6 | 4.8 | 0.00 | 0.08 | 0.08 | 48 | 1018.0 |
| 20260905155005 | 21 | 4 | 1.6 | 4.8 | 0.00 | 0.08 | 0.08 | 49 | 1017.9 |
| 20260905154505 | 21 | 338 | 1.6 | 6.4 | 0.00 | 0.08 | 0.08 | 49 | 1018.0 |
| 20260905154006 | 21 | 323 | 1.6 | 12.9 | 0.00 | 0.08 | 0.08 | 48 | 1018.0 |
| 20260905153505 | 21 | 311 | 3.2 | 20.9 | 0.00 | 0.08 | 0.08 | 48 | 1018.0 |
| 20260905153005 | 21 | 295 | 3.2 | 20.9 | 0.00 | 0.08 | 0.08 | 47 | 1018.1 |
| 20260905152505 | 22 | 297 | 3.2 | 16.1 | 0.00 | 0.08 | 0.08 | 46 | 1018.0 |
| 20260905152005 | 22 | 288 | 3.2 | 16.1 | 0.00 | 0.08 | 0.08 | 44 | 1018.0 |
| 20260905151505 | 22 | 280 | 3.2 | 16.1 | 0.00 | 0.08 | 0.08 | 43 | 1017.9 |
| 20260905151026 | 22 | 304 | 3.2 | 22.5 | 0.00 | 0.08 | 0.08 | 43 | 1018.0 |
| 20260905150505 | 22 | 300 | 3.2 | 22.5 | 0.00 | 0.08 | 0.08 | 43 | 1018.0 |
| 20260905150005 | 22 | 287 | 3.2 | 22.5 | 0.00 | 0.08 | 0.08 | 42 | 1017.8 |
| 20260905145505 | 22 | 310 | 1.6 | 12.9 | 0.00 | 0.08 | 0.08 | 42 | 1018.2 |
| 20260905145005 | 22 | 336 | 1.6 | 12.9 | 0.00 | 0.08 | 0.08 | 43 | 1018.1 |
| 20260905144526 | 23 | 267 | 3.2 | 17.7 | 0.00 | 0.08 | 0.08 | 44 | 1017.9 |
| 20260905144005 | 22 | 265 | 3.2 | 17.7 | 0.00 | 0.08 | 0.08 | 45 | 1017.6 |
| 20260905143526 | 22 | 267 | 3.2 | 17.7 | 0.00 | 0.08 | 0.08 | 45 | 1017.9 |
| 20260905143005 | 22 | 259 | 3.2 | 17.7 | 0.00 | 0.08 | 0.08 | 44 | 1018.0 |
| 20260905142505 | 23 | 253 | 4.8 | 16.1 | 0.00 | 0.08 | 0.08 | 43 | 1017.7 |
| 20260905142005 | 23 | 251 | 3.2 | 16.1 | 0.00 | 0.08 | 0.08 | 44 | 1017.8 |
| 20260905141505 | 23 | 13 | 1.6 | 11.3 | 0.00 | 0.08 | 0.08 | 43 | 1017.9 |
| 20260905141005 | 23 | 309 | 3.2 | 22.5 | 0.00 | 0.08 | 0.08 | 43 | 1018.1 |
| 20260905140505 | 22 | 265 | 6.4 | 22.5 | 0.00 | 0.08 | 0.08 | 43 | 1018.0 |
| 20260905140005 | 22 | 253 | 6.4 | 24.1 | 0.00 | 0.08 | 0.08 | 43 | 1018.1 |
| 20260905135526 | 23 | 264 | 4.8 | 24.1 | 0.00 | 0.08 | 0.08 | 41 | 1018.1 |
| 20260905135005 | 24 | 309 | 1.6 | 11.3 | 0.00 | 0.08 | 0.08 | 39 | 1018.0 |
| 20260905134505 | 23 | 328 | 1.6 | 11.3 | 0.00 | 0.08 | 0.08 | 41 | 1018.0 |
| 20260905134005 | 23 | 7 | 3.2 | 11.3 | 0.00 | 0.08 | 0.08 | 42 | 1018.1 |
| 20260905133505 | 22 | 348 | 3.2 | 12.9 | 0.00 | 0.08 | 0.08 | 44 | 1018.1 |
| 20260905133005 | 24 | 313 | 3.2 | 12.9 | 0.00 | 0.08 | 0.08 | 42 | 1018.1 |
| 20260905132505 | 24 | 336 | 1.6 | 11.3 | 0.00 | 0.08 | 0.08 | 41 | 1018.1 |
| 20260905132005 | 25 | 342 | 1.6 | 11.3 | 0.00 | 0.08 | 0.08 | 41 | 1018.1 |
| 20260905131505 | 24 | 313 | 3.2 | 14.5 | 0.00 | 0.08 | 0.08 | 43 | 1018.2 |
| 20260905131026 | 23 | 309 | 3.2 | 14.5 | 0.00 | 0.08 | 0.08 | 42 | 1018.2 |
| 20260905130526 | 23 | 324 | 3.2 | 24.1 | 0.00 | 0.08 | 0.08 | 43 | 1018.1 |
| 20260905130005 | 23 | 346 | 3.2 | 24.1 | 0.00 | 0.08 | 0.08 | 43 | 1018.1 |
| 20260905125505 | 23 | 334 | 3.2 | 14.5 | 0.00 | 0.08 | 0.08 | 42 | 1018.2 |
| 20260905125005 | 23 | 332 | 3.2 | 20.9 | 0.00 | 0.08 | 0.08 | 42 | 1018.0 |
| 20260905124505 | 22 | 353 | 4.8 | 20.9 | 0.00 | 0.08 | 0.08 | 44 | 1018.1 |
| 20260905124026 | 23 | 344 | 3.2 | 17.7 | 0.00 | 0.08 | 0.08 | 43 | 1018.2 |
| 20260905123505 | 24 | 311 | 3.2 | 12.9 | 0.00 | 0.08 | 0.08 | 42 | 1018.1 |
| 20260905123005 | 23 | 341 | 3.2 | 12.9 | 0.00 | 0.08 | 0.08 | 42 | 1018.3 |
| 20260905122505 | 23 | 321 | 3.2 | 14.5 | 0.00 | 0.08 | 0.08 | 44 | 1018.3 |
| 20260905122005 | 23 | 269 | 4.8 | 22.5 | 0.00 | 0.08 | 0.08 | 45 | 1018.1 |
| 20260905121505 | 23 | 278 | 3.2 | 22.5 | 0.00 | 0.08 | 0.08 | 44 | 1018.3 |
| 20260905121005 | 23 | 347 | 1.6 | 14.5 | 0.00 | 0.08 | 0.08 | 44 | 1018.3 |
| 20260905120505 | 23 | 4 | 3.2 | 16.1 | 0.00 | 0.08 | 0.08 | 45 | 1018.3 |
| 20260905120026 | 23 | 329 | 3.2 | 20.9 | 0.00 | 0.08 | 0.08 | 46 | 1018.5 |
| 20260905115505 | 23 | 283 | 4.8 | 24.1 | 0.00 | 0.08 | 0.08 | 45 | 1018.4 |
| 20260905115026 | 22 | 283 | 4.8 | 24.1 | 0.00 | 0.08 | 0.08 | 45 | 1018.6 |
| 20260905114505 | 22 | 299 | 3.2 | 12.9 | 0.00 | 0.08 | 0.08 | 45 | 1018.4 |
| 20260905114005 | 22 | 315 | 3.2 | 22.5 | 0.00 | 0.08 | 0.08 | 47 | 1018.4 |
| 20260905113505 | 22 | 315 | 3.2 | 22.5 | 0.00 | 0.08 | 0.08 | 48 | 1018.2 |
| 20260905113005 | 22 | 338 | 3.2 | 22.5 | 0.00 | 0.08 | 0.08 | 49 | 1018.6 |
| 20260905112505 | 23 | 319 | 3.2 | 12.9 | 0.00 | 0.08 | 0.08 | 47 | 1018.3 |
| 20260905112005 | 22 | 277 | 4.8 | 16.1 | 0.00 | 0.08 | 0.08 | 48 | 1018.8 |
| 20260905111526 | 22 | 268 | 6.4 | 16.1 | 0.00 | 0.08 | 0.08 | 49 | 1018.4 |
| 20260905111005 | 22 | 279 | 3.2 | 16.1 | 0.00 | 0.08 | 0.08 | 47 | 1018.4 |
| 20260905110526 | 22 | 293 | 3.2 | 14.5 | 0.00 | 0.08 | 0.08 | 47 | 1018.6 |
| 20260905110026 | 22 | 280 | 3.2 | 14.5 | 0.00 | 0.08 | 0.08 | 44 | 1018.6 |
| 20260905105505 | 22 | 289 | 3.2 | 16.1 | 0.00 | 0.08 | 0.08 | 47 | 1018.3 |
| 20260905105005 | 22 | 286 | 3.2 | 16.1 | 0.00 | 0.08 | 0.08 | 50 | 1018.0 |
| 20260905104505 | 22 | 271 | 6.4 | 24.1 | 0.00 | 0.08 | 0.08 | 49 | 1018.3 |
| 20260905104005 | 21 | 273 | 4.8 | 24.1 | 0.00 | 0.08 | 0.08 | 48 | 1018.2 |
| 20260905103505 | 23 | 293 | 3.2 | 24.1 | 0.00 | 0.08 | 0.08 | 47 | 1018.1 |
| 20260905103005 | 21 | 293 | 3.2 | 24.1 | 0.00 | 0.08 | 0.08 | 53 | 1018.3 |
| 20260905102525 | 23 | 308 | 3.2 | 12.9 | 0.00 | 0.08 | 0.08 | 49 | 1018.5 |
| 20260905102004 | 22 | 308 | 3.2 | 14.5 | 0.00 | 0.08 | 0.08 | 52 | 1018.4 |
| 20260905101505 | 22 | 291 | 3.2 | 17.7 | 0.00 | 0.08 | 0.08 | 53 | 1018.4 |
| 20260905101025 | 21 | 267 | 6.4 | 27.4 | 0.00 | 0.08 | 0.08 | 56 | 1018.5 |
| 20260905100505 | 20 | 257 | 4.8 | 27.4 | 0.00 | 0.08 | 0.08 | 55 | 1018.8 |
| 20260905100004 | 21 | 269 | 4.8 | 20.9 | 0.00 | 0.08 | 0.08 | 54 | 1018.6 |
| 20260905095525 | 21 | 267 | 6.4 | 20.9 | 0.00 | 0.08 | 0.08 | 55 | 1018.9 |
| 20260905095004 | 20 | 271 | 4.8 | 17.7 | 0.00 | 0.08 | 0.08 | 57 | 1018.8 |
| 20260905094526 | 21 | 298 | 3.2 | 17.7 | 0.00 | 0.08 | 0.08 | 57 | 1018.6 |
| 20260905094004 | 21 | 290 | 3.2 | 11.3 | 0.00 | 0.08 | 0.08 | 57 | 1018.9 |
| 20260905093504 | 20 | 280 | 3.2 | 11.3 | 0.00 | 0.08 | 0.08 | 62 | 1018.6 |
| 20260905093004 | 20 | 272 | 4.8 | 22.5 | 0.00 | 0.08 | 0.08 | 63 | 1018.6 |
| 20260905092504 | 19 | 271 | 4.8 | 22.5 | 0.00 | 0.08 | 0.08 | 65 | 1019.0 |
| 20260905092004 | 20 | 284 | 3.2 | 14.5 | 0.00 | 0.08 | 0.08 | 64 | 1019.0 |
| 20260905091504 | 20 | 295 | 3.2 | 11.3 | 0.00 | 0.08 | 0.08 | 66 | 1018.6 |
| 20260905091004 | 20 | 359 | 1.6 | 6.4 | 0.00 | 0.08 | 0.08 | 63 | 1019.0 |
| 20260905090504 | 20 | 291 | 3.2 | 12.9 | 0.00 | 0.08 | 0.08 | 71 | 1018.9 |
| 20260905090004 | 18 | 280 | 3.2 | 17.7 | 0.00 | 0.08 | 0.08 | 72 | 1018.8 |
| 20260905085525 | 18 | 269 | 4.8 | 22.5 | 0.00 | 0.08 | 0.08 | 74 | 1019.0 |
| 20260905085004 | 17 | 262 | 6.4 | 22.5 | 0.00 | 0.08 | 0.08 | 74 | 1019.0 |
| 20260905084504 | 18 | 275 | 3.2 | 16.1 | 0.00 | 0.08 | 0.08 | 74 | 1018.9 |
| 20260905084025 | 17 | 282 | 3.2 | 16.1 | 0.00 | 0.08 | 0.08 | 75 | 1019.0 |
| 20260905083504 | 17 | 293 | 1.6 | 6.4 | 0.00 | 0.08 | 0.08 | 76 | 1019.0 |
| 20260905083004 | 17 | 304 | 1.6 | 6.4 | 0.00 | 0.08 | 0.08 | 78 | 1018.6 |
| 20260905082504 | 17 | 314 | 1.6 | 4.8 | 0.00 | 0.08 | 0.08 | 80 | 1018.8 |
| 20260905082025 | 16 | 314 | 0.0 | 4.8 | 0.00 | 0.08 | 0.08 | 81 | 1019.0 |
| 20260905081504 | 16 | 343 | 0.0 | 4.8 | 0.00 | 0.08 | 0.08 | 81 | 1018.5 |
| 20260905081025 | 16 | 333 | 0.0 | 4.8 | 0.00 | 0.08 | 0.08 | 85 | 1018.8 |
| 20260905080504 | 16 | 315 | 0.0 | 3.2 | 0.00 | 0.08 | 0.08 | 85 | 1018.8 |
| 20260905080004 | 15 | 324 | 0.0 | 4.8 | 0.00 | 0.08 | 0.08 | 84 | 1018.9 |
| 20260905075525 | 15 | 315 | 1.6 | 4.8 | 0.00 | 0.08 | 0.08 | 86 | 1018.4 |
| 20260905075004 | 15 | 307 | 1.6 | 4.8 | 0.00 | 0.08 | 0.08 | 86 | 1018.3 |
| 20260905074504 | 15 | 315 | 0.0 | 3.2 | 0.00 | 0.08 | 0.08 | 87 | 1018.4 |
| 20260905074004 | 14 | 316 | 0.0 | 3.2 | 0.00 | 0.08 | 0.08 | 87 | 1018.0 |
| 20260905073504 | 14 | 309 | 0.0 | 3.2 | 0.00 | 0.08 | 0.08 | 88 | 1018.0 |
| 20260905073004 | 14 | 323 | 0.0 | 3.2 | 0.00 | 0.08 | 0.08 | 88 | 1017.6 |
| 20260905072525 | 14 | 344 | 0.0 | 1.6 | 0.00 | 0.08 | 0.08 | 90 | 1017.6 |
| 20260905072004 | 14 | 11 | 0.0 | 1.6 | 0.00 | 0.08 | 0.08 | 88 | 1017.5 |
| 20260905071504 | 14 | 351 | 0.0 | 3.2 | 0.00 | 0.08 | 0.08 | 89 | 1017.6 |
| 20260905071004 | 14 | 333 | 0.0 | 3.2 | 0.00 | 0.08 | 0.08 | 88 | 1017.8 |
| 20260905070504 | 14 | 335 | 0.0 | 1.6 | 0.03 | 0.08 | 0.08 | 90 | 1018.0 |
| 20260905070004 | 13 | 323 | 0.0 | 1.6 | 0.03 | 0.08 | 0.08 | 90 | 1017.8 |
| 20260905065504 | 13 | 323 | 0.0 | 1.6 | 0.03 | 0.08 | 0.08 | 89 | 1017.6 |
| 20260905065025 | 13 | 3 | 0.0 | 3.2 | 0.03 | 0.08 | 0.08 | 90 | 1017.7 |
| 20260905064525 | 13 | 5 | 0.0 | 3.2 | 0.03 | 0.08 | 0.08 | 90 | 1017.8 |
| 20260905064004 | 13 | 4 | 0.0 | 1.6 | 0.05 | 0.08 | 0.08 | 91 | 1018.5 |
| 20260905063504 | 13 | 7 | 0.0 | 1.6 | 0.05 | 0.08 | 0.08 | 90 | 1018.1 |
| 20260905063004 | 13 | 344 | 0.0 | 1.6 | 0.05 | 0.08 | 0.08 | 91 | 1018.0 |
| 20260905062504 | 13 | 325 | 0.0 | 4.8 | 0.05 | 0.08 | 0.08 | 89 | 1018.2 |
| 20260905062004 | 13 | 324 | 0.0 | 4.8 | 0.05 | 0.08 | 0.08 | 90 | 1017.9 |
| 20260905061525 | 13 | 344 | 0.0 | 4.8 | 0.05 | 0.08 | 0.08 | 88 | 1017.5 |
| 20260905061004 | 13 | 280 | 1.6 | 14.5 | 0.05 | 0.08 | 0.08 | 88 | 1017.0 |
| 20260905060525 | 14 | 267 | 1.6 | 14.5 | 0.03 | 0.05 | 0.05 | 88 | 1017.3 |
| 20260905060004 | 14 | 293 | 1.6 | 14.5 | 0.03 | 0.05 | 0.05 | 85 | 1017.4 |
| 20260905055504 | 14 | 316 | 1.6 | 6.4 | 0.03 | 0.05 | 0.05 | 87 | 1017.6 |
| 20260905055004 | 14 | 302 | 1.6 | 6.4 | 0.03 | 0.05 | 0.05 | 86 | 1017.9 |
| 20260905054504 | 14 | 307 | 0.0 | 4.8 | 0.03 | 0.05 | 0.05 | 87 | 1017.8 |
| 20260905054004 | 14 | 324 | 0.0 | 4.8 | 0.00 | 0.03 | 0.03 | 87 | 1017.9 |
| 20260905053525 | 15 | 322 | 0.0 | 4.8 | 0.00 | 0.03 | 0.03 | 85 | 1017.9 |
| 20260905053004 | 15 | 319 | 1.6 | 6.4 | 0.00 | 0.03 | 0.03 | 84 | 1017.6 |
| 20260905052504 | 15 | 346 | 1.6 | 6.4 | 0.00 | 0.03 | 0.03 | 83 | 1017.6 |
| 20260905052004 | 15 | 359 | 1.6 | 11.3 | 0.00 | 0.03 | 0.03 | 84 | 1017.2 |
| 20260905051504 | 15 | 350 | 1.6 | 11.3 | 0.00 | 0.03 | 0.03 | 87 | 1017.3 |
| 20260905051025 | 15 | 346 | 1.6 | 11.3 | 0.00 | 0.03 | 0.03 | 87 | 1017.3 |
| 20260905050504 | 15 | 299 | 0.0 | 6.4 | 0.00 | 0.03 | 0.03 | 88 | 1017.1 |
| 20260905050004 | 15 | 303 | 0.0 | 6.4 | 0.00 | 0.03 | 0.03 | 89 | 1017.1 |
| 20260905045504 | 15 | 298 | 0.0 | 6.4 | 0.03 | 0.03 | 0.03 | 91 | 1016.7 |
| 20260905045004 | 15 | 298 | 0.0 | 6.4 | 0.03 | 0.03 | 0.03 | 90 | 1016.9 |
| 20260905044504 | 15 | 304 | 0.0 | 1.6 | 0.03 | 0.03 | 0.03 | 92 | 1016.9 |
| 20260905044003 | 15 | 304 | 0.0 | 1.6 | 0.03 | 0.03 | 0.03 | 92 | 1016.8 |
| 20260905043504 | 15 | 0 | 0.0 | 0.0 | 0.03 | 0.03 | 0.03 | 92 | 1016.9 |
| 20260905043003 | 15 | 0 | 0.0 | 0.0 | 0.03 | 0.03 | 0.03 | 91 | 1016.8 |
| 20260905042524 | 15 | 291 | 0.0 | 3.2 | 0.03 | 0.03 | 0.03 | 91 | 1016.5 |
| 20260905042004 | 15 | 290 | 0.0 | 4.8 | 0.03 | 0.03 | 0.03 | 90 | 1016.4 |
| 20260905041504 | 16 | 283 | 1.6 | 6.4 | 0.03 | 0.03 | 0.03 | 89 | 1016.3 |
| 20260905041003 | 16 | 282 | 1.6 | 6.4 | 0.03 | 0.03 | 0.03 | 88 | 1016.5 |
| 20260905040504 | 16 | 294 | 0.0 | 4.8 | 0.03 | 0.03 | 0.03 | 88 | 1015.8 |
| 20260905040003 | 16 | 5 | 0.0 | 4.8 | 0.03 | 0.03 | 0.03 | 87 | 1016.0 |
| 20260905035504 | 16 | 350 | 0.0 | 4.8 | 0.00 | 0.00 | 0.00 | 86 | 1015.9 |
| 20260905035004 | 16 | 316 | 0.0 | 4.8 | 0.00 | 0.00 | 0.00 | 85 | 1015.8 |
| 20260905034524 | 16 | 304 | 0.0 | 4.8 | 0.00 | 0.00 | 0.00 | 85 | 1015.9 |
| 20260905034003 | 16 | 303 | 0.0 | 4.8 | 0.00 | 0.00 | 0.00 | 84 | 1015.3 |
| 20260905033504 | 16 | 303 | 0.0 | 4.8 | 0.00 | 0.00 | 0.00 | 84 | 1015.6 |
| 20260905033003 | 16 | 309 | 1.6 | 9.7 | 0.00 | 0.00 | 0.00 | 83 | 1015.8 |
| 20260905032503 | 16 | 341 | 1.6 | 9.7 | 0.00 | 0.00 | 0.00 | 82 | 1015.5 |
| 20260905032024 | 17 | 359 | 1.6 | 9.7 | 0.00 | 0.00 | 0.00 | 81 | 1015.4 |
| 20260905031503 | 17 | 360 | 0.0 | 9.7 | 0.00 | 0.00 | 0.00 | 79 | 1015.6 |
| 20260905031004 | 17 | 331 | 0.0 | 3.2 | 0.00 | 0.00 | 0.00 | 79 | 1015.8 |
| 20260905030503 | 17 | 304 | 0.0 | 3.2 | 0.00 | 0.00 | 0.00 | 79 | 1015.4 |
| 20260905030003 | 17 | 307 | 0.0 | 3.2 | 0.00 | 0.00 | 0.00 | 79 | 1015.3 |
| 20260905025503 | 17 | 310 | 0.0 | 3.2 | 0.00 | 0.00 | 0.00 | 78 | 1015.1 |
| 20260905025003 | 17 | 317 | 0.0 | 9.7 | 0.00 | 0.00 | 0.00 | 77 | 1014.8 |
| 20260905024503 | 17 | 323 | 1.6 | 9.7 | 0.00 | 0.00 | 0.00 | 77 | 1014.9 |
| 20260905024003 | 17 | 324 | 1.6 | 11.3 | 0.00 | 0.00 | 0.00 | 77 | 1015.0 |
| 20260905023503 | 17 | 339 | 1.6 | 12.9 | 0.00 | 0.00 | 0.00 | 76 | 1014.8 |
| 20260905023003 | 17 | 338 | 1.6 | 12.9 | 0.00 | 0.00 | 0.00 | 75 | 1014.9 |
| 20260905022503 | 18 | 306 | 1.6 | 4.8 | 0.00 | 0.00 | 0.00 | 71 | 1014.9 |
| 20260905022024 | 18 | 299 | 1.6 | 4.8 | 0.00 | 0.00 | 0.00 | 69 | 1014.8 |
| 20260905021524 | 18 | 303 | 0.0 | 3.2 | 0.00 | 0.00 | 0.00 | 70 | 1014.6 |
| 20260905021024 | 18 | 312 | 0.0 | 3.2 | 0.00 | 0.00 | 0.00 | 70 | 1014.5 |
| 20260905020524 | 18 | 320 | 0.0 | 1.6 | 0.00 | 0.00 | 0.00 | 70 | 1014.1 |
| 20260905020003 | 18 | 319 | 0.0 | 1.6 | 0.00 | 0.00 | 0.00 | 70 | 1014.4 |
| 20260905015503 | 18 | 314 | 0.0 | 3.2 | 0.00 | 0.00 | 0.00 | 69 | 1014.5 |
| 20260905015003 | 18 | 304 | 1.6 | 6.4 | 0.00 | 0.00 | 0.00 | 69 | 1014.6 |
| 20260905014503 | 18 | 318 | 1.6 | 6.4 | 0.00 | 0.00 | 0.00 | 68 | 1014.5 |
| 20260905014003 | 18 | 336 | 1.6 | 6.4 | 0.00 | 0.00 | 0.00 | 68 | 1014.5 |
| 20260905013503 | 18 | 347 | 3.2 | 14.5 | 0.00 | 0.00 | 0.00 | 68 | 1014.1 |
| 20260905013024 | 18 | 349 | 1.6 | 14.5 | 0.00 | 0.00 | 0.00 | 68 | 1014.1 |
| 20260905012503 | 18 | 345 | 1.6 | 11.3 | 0.00 | 0.00 | 0.00 | 69 | 1014.4 |
| 20260905012003 | 18 | 344 | 1.6 | 11.3 | 0.00 | 0.00 | 0.00 | 70 | 1014.3 |
| 20260905011524 | 18 | 335 | 1.6 | 6.4 | 0.00 | 0.00 | 0.00 | 70 | 1014.3 |
| 20260905011024 | 18 | 340 | 1.6 | 6.4 | 0.00 | 0.00 | 0.00 | 70 | 1014.2 |
| 20260905010503 | 18 | 345 | 1.6 | 6.4 | 0.00 | 0.00 | 0.00 | 70 | 1014.3 |
| 20260905010003 | 19 | 346 | 1.6 | 6.4 | 0.00 | 0.00 | 0.00 | 71 | 1013.9 |
| 20260905005507 | 19 | 343 | 3.2 | 12.9 | 0.00 | 0.00 | 0.00 | 71 | 1013.9 |
| 20260905005007 | 19 | 342 | 3.2 | 12.9 | 0.00 | 0.00 | 0.00 | 71 | 1014.1 |
| 20260905004507 | 20 | 340 | 3.2 | 11.3 | 0.00 | 0.00 | 0.00 | 71 | 1014.1 |
| 20260905004007 | 20 | 342 | 3.2 | 12.9 | 0.00 | 0.00 | 0.00 | 71 | 1013.3 |
| 20260905003507 | 20 | 346 | 3.2 | 12.9 | 0.00 | 0.00 | 0.00 | 71 | 1013.5 |
| 20260905003028 | 20 | 345 | 3.2 | 12.9 | 0.00 | 0.00 | 0.00 | 70 | 1013.1 |
| 20260905002507 | 17 | 328 | 0.0 | 6.4 | 0.00 | 0.00 | 0.00 | 74 | 1013.0 |
| 20260905002007 | 16 | 333 | 0.0 | 1.6 | 0.00 | 0.00 | 0.00 | 82 | 1012.4 |
| 20260905001507 | 16 | 332 | 0.0 | 1.6 | 0.00 | 0.00 | 0.00 | 82 | 1012.0 |
| 20260905001007 | 16 | 331 | 0.0 | 1.6 | 0.00 | 0.00 | 0.00 | 82 | 1011.9 |
| 20260905000507 | 16 | 333 | 0.0 | 1.6 | 0.00 | 0.00 | 0.00 | 82 | 1011.7 |
| 20260905000007 | 16 | 333 | 0.0 | 1.6 | 0.00 | 0.00 | 0.00 | 83 | 1011.5 |
| 20260904235507 | 16 | 0 | 0.0 | 0.0 | 0.00 | 0.00 | 0.00 | 83 | 1011.6 |
| 20260904235007 | 16 | 0 | 0.0 | 0.0 | 0.00 | 0.00 | 0.00 | 83 | 1011.6 |
| 20260904234507 | 16 | 0 | 0.0 | 0.0 | 0.00 | 0.00 | 0.00 | 83 | 1011.4 |
| 20260904234007 | 16 | 333 | 0.0 | 1.6 | 0.00 | 0.00 | 0.00 | 82 | 1011.5 |
| 20260904233507 | 16 | 333 | 0.0 | 1.6 | 0.00 | 0.00 | 0.00 | 82 | 1011.6 |
| 20260904233007 | 16 | 0 | 0.0 | 0.0 | 0.00 | 0.00 | 0.00 | 82 | 1011.5 |
| 20260904232507 | 16 | 0 | 0.0 | 0.0 | 0.00 | 0.00 | 0.00 | 82 | 1011.3 |
| 20260904232007 | 16 | 0 | 0.0 | 0.0 | 0.00 | 0.00 | 0.00 | 81 | 1011.6 |
| 20260904231528 | 16 | 0 | 0.0 | 0.0 | 0.00 | 0.00 | 0.00 | 81 | 1011.5 |
| 20260904231028 | 16 | 0 | 0.0 | 0.0 | 0.00 | 0.00 | 0.00 | 81 | 1011.5 |
| 20260904230507 | 16 | 0 | 0.0 | 0.0 | 0.00 | 0.00 | 0.00 | 81 | 1011.6 |
| 20260904230007 | 16 | 0 | 0.0 | 0.0 | 0.00 | 0.00 | 0.00 | 81 | 1011.3 |
| 20260904225507 | 16 | 0 | 0.0 | 0.0 | 0.00 | 0.00 | 0.00 | 82 | 1011.4 |
| 20260904225028 | 16 | 329 | 0.0 | 1.6 | 0.00 | 0.00 | 0.00 | 82 | 1011.3 |
| 20260904224507 | 16 | 330 | 0.0 | 1.6 | 0.00 | 0.00 | 0.00 | 82 | 1011.3 |
| 20260904224007 | 16 | 335 | 0.0 | 1.6 | 0.00 | 0.00 | 0.00 | 82 | 1011.2 |
| 20260904223507 | 16 | 335 | 0.0 | 1.6 | 0.00 | 0.00 | 0.00 | 81 | 1011.3 |
| 20260904223006 | 16 | 0 | 0.0 | 0.0 | 0.00 | 0.00 | 0.00 | 81 | 1011.5 |
| 20260904222507 | 16 | 0 | 0.0 | 0.0 | 0.00 | 0.00 | 0.00 | 80 | 1011.3 |
| 20260904222027 | 16 | 86 | 0.0 | 1.6 | 0.00 | 0.00 | 0.00 | 80 | 1011.2 |
| 20260904221506 | 17 | 86 | 0.0 | 1.6 | 0.00 | 0.00 | 0.00 | 80 | 1011.2 |
| 20260904221006 | 17 | 0 | 0.0 | 0.0 | 0.00 | 0.00 | 0.00 | 79 | 1011.3 |
| 20260904220506 | 17 | 0 | 0.0 | 0.0 | 0.00 | 0.00 | 0.00 | 80 | 1011.3 |
| 20260904220006 | 17 | 0 | 0.0 | 0.0 | 0.00 | 0.00 | 0.00 | 80 | 1011.1 |
| 20260904215506 | 17 | 0 | 0.0 | 0.0 | 0.00 | 0.00 | 0.00 | 80 | 1011.2 |
| 20260904215007 | 17 | 0 | 0.0 | 0.0 | 0.00 | 0.00 | 0.00 | 80 | 1011.4 |
| 20260904214506 | 17 | 87 | 0.0 | 1.6 | 0.00 | 0.00 | 0.00 | 80 | 1011.5 |
| 20260904214027 | 17 | 87 | 0.0 | 1.6 | 0.00 | 0.00 | 0.00 | 79 | 1011.3 |
| 20260904213506 | 17 | 86 | 0.0 | 1.6 | 0.00 | 0.00 | 0.00 | 79 | 1011.4 |
| 20260904213006 | 17 | 87 | 0.0 | 1.6 | 0.00 | 0.00 | 0.00 | 78 | 1011.2 |
| 20260904212506 | 17 | 0 | 0.0 | 0.0 | 0.00 | 0.00 | 0.00 | 78 | 1011.3 |
| 20260904212027 | 17 | 0 | 0.0 | 0.0 | 0.00 | 0.00 | 0.00 | 78 | 1011.4 |
| 20260904211506 | 17 | 0 | 0.0 | 0.0 | 0.00 | 0.00 | 0.00 | 79 | 1011.5 |
| 20260904211027 | 17 | 0 | 0.0 | 0.0 | 0.00 | 0.00 | 0.00 | 78 | 1011.3 |
| 20260904210527 | 17 | 104 | 0.0 | 1.6 | 0.00 | 0.00 | 0.00 | 78 | 1011.1 |
| 20260904210006 | 17 | 132 | 0.0 | 1.6 | 0.00 | 0.00 | 0.00 | 77 | 1011.2 |
| 20260904205506 | 17 | 195 | 0.0 | 1.6 | 0.00 | 0.00 | 0.00 | 77 | 1011.2 |
| 20260904205006 | 17 | 0 | 0.0 | 0.0 | 0.00 | 0.00 | 0.00 | 77 | 1011.5 |
| 20260904204506 | 17 | 358 | 0.0 | 1.6 | 0.00 | 0.00 | 0.00 | 76 | 1011.2 |
| 20260904204006 | 17 | 358 | 0.0 | 1.6 | 0.00 | 0.00 | 0.00 | 76 | 1011.5 |
| 20260904203506 | 17 | 0 | 0.0 | 0.0 | 0.00 | 0.00 | 0.00 | 76 | 1011.3 |
| 20260904203006 | 17 | 0 | 0.0 | 0.0 | 0.00 | 0.00 | 0.00 | 76 | 1011.2 |
| 20260904202506 | 17 | 356 | 0.0 | 1.6 | 0.00 | 0.00 | 0.00 | 76 | 1011.3 |
| 20260904202006 | 18 | 356 | 0.0 | 1.6 | 0.00 | 0.00 | 0.00 | 76 | 1011.4 |
| 20260904201506 | 18 | 355 | 0.0 | 1.6 | 0.00 | 0.00 | 0.00 | 75 | 1011.4 |
| 20260904201027 | 18 | 350 | 0.0 | 1.6 | 0.00 | 0.00 | 0.00 | 74 | 1011.2 |
| 20260904200506 | 18 | 344 | 0.0 | 1.6 | 0.00 | 0.00 | 0.00 | 74 | 1011.2 |
| 20260904200006 | 18 | 338 | 0.0 | 1.6 | 0.00 | 0.00 | 0.00 | 74 | 1011.5 |
| 20260904195527 | 18 | 0 | 0.0 | 0.0 | 0.00 | 0.00 | 0.00 | 74 | 1011.6 |
| 20260904195006 | 18 | 0 | 0.0 | 0.0 | 0.00 | 0.00 | 0.00 | 73 | 1011.5 |
| 20260904194506 | 18 | 0 | 0.0 | 0.0 | 0.00 | 0.00 | 0.00 | 73 | 1011.8 |
| 20260904194006 | 18 | 0 | 0.0 | 0.0 | 0.00 | 0.00 | 0.00 | 73 | 1011.8 |
| 20260904193527 | 19 | 0 | 0.0 | 0.0 | 0.00 | 0.00 | 0.00 | 72 | 1011.9 |
| 20260904193006 | 19 | 0 | 0.0 | 0.0 | 0.00 | 0.00 | 0.00 | 71 | 1011.8 |
| 20260904192506 | 19 | 0 | 0.0 | 0.0 | 0.00 | 0.00 | 0.00 | 70 | 1011.9 |
| 20260904192006 | 20 | 0 | 0.0 | 0.0 | 0.00 | 0.00 | 0.00 | 70 | 1012.0 |
| 20260904191506 | 20 | 0 | 0.0 | 0.0 | 0.00 | 0.00 | 0.00 | 69 | 1012.0 |
| 20260904191006 | 20 | 241 | 0.0 | 1.6 | 0.00 | 0.00 | 0.00 | 69 | 1012.0 |
| 20260904190527 | 20 | 241 | 0.0 | 1.6 | 0.00 | 0.00 | 0.00 | 69 | 1011.8 |
| 20260904190006 | 20 | 241 | 0.0 | 1.6 | 0.00 | 0.00 | 0.00 | 68 | 1012.1 |
| 20260904185506 | 20 | 241 | 0.0 | 1.6 | 0.00 | 0.00 | 0.00 | 67 | 1011.8 |
| 20260904185006 | 20 | 241 | 0.0 | 1.6 | 0.00 | 0.00 | 0.00 | 67 | 1012.0 |
| 20260904184506 | 21 | 0 | 0.0 | 0.0 | 0.00 | 0.00 | 0.00 | 67 | 1011.8 |
| 20260904184006 | 21 | 0 | 0.0 | 0.0 | 0.00 | 0.00 | 0.00 | 64 | 1011.7 |